Home   Weather   Ganja   Past weeks
Flag for Azerbaijan

Past Weather in Ganja, Azerbaijan — Yesterday and Last 2 Weeks

Now
73 °F

Partly sunny.


Feels Like: 77 °F
Forecast: 78 / 60 °F
Wind: 16 mph from Northwest

Location: Gyanca Airport

Current Time: May 26, 2019 at 11:12:19 am

Latest Report: May 26, 2019 at 10:30 am


Visibility: N/A

Pressure: 29.89 "Hg

Humidity: 53%

Dew Point: 55 °F

Location of GanjaLocation

Past Weather in Ganja — Graph

°F

Ganja Temperature Yesterday

Maximum temperature yesterday: 81 °F (at 5:00 pm)
Minimum temperature yesterday: 63 °F (at 5:30 am)
Average temperature yesterday: 72 °F

High & Low Weather Summary for the Past Weeks

 TemperatureHumidityPressure
High91 °F (May 19, 3:00 pm)100% (May 12, 4:00 am)30.15 "Hg (May 12, 4:00 am)
Low57 °F (May 14, 5:00 am)21% (May 15, 5:00 pm)29.65 "Hg (May 19, 5:00 pm)
Average71 °F62%29.95 "Hg
* Reported May 11 10:00 am — May 26 10:00 am, Ganja. Weather by CustomWeather, © 2019

Note: Actual official high and low records may vary slightly from our data, if they occured in-between our weather recording intervals... More about our weather records

Advertising

Ganja Weather History for the Previous 24 Hours

Scroll right to see more
 ConditionsComfort  
Time TempWeatherWind HumidityBarometerVisibility
10:00 am
Sun, May 26
73 °FPartly sunny.18 mph53%29.89 "HgN/A
9:30 am72 °FPartly sunny.18 mph57%29.89 "HgN/A
9:00 am70 °FPartly sunny.16 mph64%29.89 "HgN/A
8:30 am70 °FPartly sunny.16 mph64%29.89 "HgN/A
8:00 am68 °FScattered clouds.14 mph69%29.89 "HgN/A
7:30 am68 °FScattered clouds.14 mph69%29.89 "HgN/A
7:00 am66 °FScattered clouds.16 mph73%29.89 "HgN/A
6:30 am66 °FScattered clouds.16 mph73%29.89 "HgN/A
6:00 am64 °FPassing clouds.14 mph78%29.89 "HgN/A
5:30 am64 °FPassing clouds.14 mph78%29.89 "HgN/A
5:00 am64 °FPassing clouds.12 mph78%29.89 "HgN/A
4:30 am64 °FPassing clouds.9 mph78%29.89 "HgN/A
4:00 am64 °FPassing clouds.9 mph78%29.89 "HgN/A
3:30 am64 °FPassing clouds.12 mph78%29.89 "HgN/A
3:00 am66 °FPassing clouds.12 mph73%29.92 "HgN/A
2:30 am66 °FPassing clouds.14 mph73%29.92 "HgN/A
2:00 am68 °FPassing clouds.12 mph69%29.92 "HgN/A
1:30 am68 °FPassing clouds.12 mph64%29.92 "HgN/A
1:00 am70 °FPartly cloudy.21 mph60%29.92 "HgN/A
12:30 am72 °FPartly cloudy.23 mph53%29.95 "HgN/A
12:00 am72 °FPartly cloudy.21 mph57%29.95 "HgN/A
11:30 pm
Sat, May 25
73 °FPartly cloudy.16 mph57%29.95 "HgN/A
11:00 pm73 °FPartly cloudy.16 mph57%29.95 "HgN/A
10:30 pm72 °FPartly cloudy.16 mph65%29.92 "HgN/A
10:00 pm73 °FPassing clouds.18 mph69%29.89 "HgN/A
9:30 pm73 °FPassing clouds.7 mph65%29.83 "HgN/A
9:00 pm77 °FPartly sunny.9 mph54%29.80 "HgN/A
8:30 pm79 °FPartly sunny.12 mph51%29.80 "HgN/A
8:00 pm79 °FPartly sunny.9 mph51%29.80 "HgN/A
7:30 pm81 °FPartly sunny.14 mph48%29.80 "HgN/A
7:00 pm81 °FPartly sunny.16 mph48%29.80 "HgN/A
6:30 pm81 °FPartly sunny.14 mph51%29.80 "HgN/A
6:00 pm81 °FPartly sunny.16 mph48%29.80 "HgN/A
5:30 pm81 °FPartly sunny.12 mph45%29.83 "HgN/A
5:00 pm81 °FPartly sunny.5 mph45%29.83 "HgN/A
4:30 pm79 °FPartly sunny.16 mph58%29.86 "HgN/A
4:00 pm79 °FPartly sunny.5 mph54%29.86 "HgN/A
3:30 pm77 °FPartly sunny.9 mph57%29.89 "HgN/A
3:00 pm77 °FPartly sunny.9 mph65%29.89 "HgN/A
2:30 pm79 °FPartly sunny.7 mph54%29.86 "HgN/A
2:00 pm79 °FPartly sunny.5 mph51%29.86 "HgN/A
1:30 pm77 °FPartly sunny.5 mph57%29.86 "HgN/A
1:00 pm77 °FPartly sunny.5 mph61%29.89 "HgN/A
12:30 pm75 °FPartly sunny.5 mph65%29.89 "HgN/A
12:00 pm73 °FPartly sunny.5 mph65%29.92 "HgN/A
11:30 am73 °FPartly sunny.5 mph65%29.92 "HgN/A
11:00 am72 °FPartly sunny.5 mph73%29.92 "HgN/A
Weather by CustomWeather, © 2019

See weather overview